GFSGL_700_rhum_174.txt.gz
RH
34 22 12 20 22 22 23 24 26 32 33 33 33 23 10 10 18 25 25 22 22 24 26 28 32 42 50 61 66 64 56 45 38 28 25 23 20 20 17 14 12 11 10
22 17 22 27 27 25 28 34 34 33 33 32 32 19 5 4 8 10 15 23 28 32 33 32 35 43 50 61 70 74 71 64 57 51 41 37 34 32 29 27 24 21 16
30 34 34 34 36 41 42 44 45 40 35 33 31 18 7 4 4 4 4 6 8 11 14 19 27 37 48 63 68 69 73 73 69 65 60 52 50 48 45 41 38 33 29
43 41 42 43 47 47 50 50 46 41 38 34 28 18 8 6 7 6 5 4 5 7 11 15 21 31 40 50 61 67 68 66 65 64 62 61 59 57 58 55 51 48 44
49 49 50 54 58 58 55 48 44 42 38 32 22 12 7 6 8 11 12 12 9 8 10 14 21 27 33 42 51 57 62 65 65 64 63 62 62 62 62 60 58 56 56
58 60 64 70 66 59 55 49 44 41 40 36 23 15 11 8 7 10 12 15 19 19 16 17 19 25 34 41 45 49 54 57 60 64 65 66 66 67 66 65 64 63 65
63 66 70 67 62 61 61 55 48 44 40 38 32 24 15 12 12 12 14 16 18 22 24 23 25 31 34 40 46 50 52 56 59 63 64 69 70 70 68 68 68 69 70
78 76 71 67 66 68 62 53 46 42 34 26 20 18 16 18 18 18 18 19 20 25 31 31 31 32 35 38 44 53 54 58 64 67 66 67 68 68 68 70 71 73 74
78 77 79 78 75 65 57 52 49 44 35 28 24 20 23 29 28 26 24 23 21 18 20 28 34 33 36 39 41 44 53 60 63 65 69 71 73 76 75 73 73 71 71
87 86 84 68 66 60 57 58 53 46 43 43 41 39 34 33 34 33 31 25 20 18 17 19 31 29 32 37 41 44 44 49 51 56 59 61 56 55 53 53 58 54 61
66 66 67 63 61 57 54 55 52 49 45 48 48 51 48 44 42 38 33 27 23 22 22 23 27 31 35 35 39 41 39 34 31 30 30 31 33 40 44 42 45 45 47
72 69 64 59 52 48 45 44 56 64 66 63 60 57 56 54 51 45 38 31 27 24 24 26 33 36 35 37 40 40 39 33 29 28 30 36 43 47 51 55 57 60 64
81 75 75 67 61 62 62 62 63 71 75 72 68 65 62 61 56 52 45 36 30 28 30 37 52 59 52 47 50 51 55 56 52 52 57 58 61 63 62 66 68 73 78
95 90 85 81 80 82 78 74 69 63 58 54 49 46 50 51 57 59 49 35 31 30 54 70 77 84 85 82 81 85 86 85 79 71 65 60 59 62 62 69 77 82 80
94 92 89 92 86 78 68 59 54 50 48 46 45 43 40 38 37 36 33 30 27 26 27 57 91 96 91 84 82 81 79 78 72 64 53 40 32 36 53 66 78 84 88
95 96 96 93 84 78 76 75 70 67 65 62 62 63 58 54 51 49 50 46 35 29 25 23 27 52 83 90 84 78 75 66 37 24 20 17 15 26 47 67 81 86 89
61 62 67 70 75 79 76 75 73 67 73 68 66 63 61 59 52 43 41 40 44 46 39 33 35 38 25 24 45 70 77 78 74 34 12 11 20 32 42 61 75 82 89
24 24 21 20 20 19 18 18 19 20 26 36 38 40 46 46 47 48 48 48 41 39 30 27 28 27 31 37 26 22 43 69 74 40 13 15 36 38 43 60 78 85 92
20 18 18 16 15 15 16 17 21 24 23 20 18 16 17 18 19 25 22 23 30 35 38 37 29 26 24 22 28 35 26 47 65 42 16 19 49 48 64 73 80 88 92
34 29 20 18 21 31 36 35 37 39 35 30 25 24 27 30 26 22 20 20 18 19 22 25 28 31 26 18 17 24 32 32 48 32 16 22 63 59 73 86 91 94 96
31 22 20 26 35 45 48 46 47 42 39 38 35 32 30 30 25 25 27 26 24 22 19 18 19 23 20 19 15 21 30 32 44 50 29 24 67 68 72 80 90 96 97
31 41 49 48 50 54 52 53 49 44 35 30 30 36 46 49 45 41 35 33 32 30 31 34 29 20 17 17 15 17 30 35 52 62 43 28 63 76 72 74 84 94 97
60 53 49 51 57 65 66 62 57 50 42 41 48 60 75 81 86 73 54 43 43 46 46 47 46 43 36 31 30 30 30 37 68 74 64 43 72 77 74 69 80 91 95
58 52 47 41 40 55 69 72 61 59 69 77 78 85 84 88 83 80 77 76 70 59 56 55 60 63 60 49 42 41 34 44 66 68 79 70 76 81 77 69 78 86 89
60 53 49 42 36 39 50 68 77 72 80 75 72 80 87 86 87 94 90 85 74 68 74 78 77 77 76 74 63 52 44 46 46 46 74 78 76 84 81 71 76 83 92
58 52 41 39 50 62 69 78 85 82 87 78 76 82 97 99 100 100 97 92 93 77 62 44 44 72 75 76 84 72 64 57 53 51 73 89 80 92 83 72 80 84 89

GFSGL_700_rhum_180.txt.gz
RH
30 32 32 32 34 37 39 40 41 38 36 38 37 38 39 40 38 34 32 30 27 17 8 6 4 8 12 15 19 22 24 29 28 29 58 70 67 62 54 47 42 39 36
39 42 45 50 54 52 44 46 46 46 49 50 50 48 46 45 43 40 37 32 24 16 10 7 6 6 5 7 9 10 14 20 24 20 43 66 74 74 70 63 57 55 53
46 48 52 56 55 45 46 51 51 54 58 59 58 54 50 45 41 38 36 32 23 14 9 8 8 8 9 9 9 11 15 19 25 23 26 57 73 72 70 68 65 64 62
48 50 51 49 49 50 53 55 57 60 62 63 59 56 53 47 43 39 37 36 34 24 15 11 9 10 11 12 17 16 16 19 24 29 32 38 59 72 71 69 65 63 62
48 50 51 52 55 59 64 67 69 70 71 68 64 60 58 56 51 46 43 40 38 34 29 22 17 15 14 16 19 24 26 24 26 32 34 40 48 62 70 69 69 68 66
51 54 56 61 67 73 77 77 77 77 74 71 69 67 65 58 52 48 45 42 36 32 28 23 21 19 18 19 21 24 31 37 38 38 39 40 46 57 66 68 63 68 70
71 72 75 80 82 85 86 86 86 83 79 76 74 70 66 60 54 49 48 46 40 32 26 22 22 23 22 21 22 28 34 38 42 42 49 52 50 54 61 65 66 67 72
88 93 94 92 92 93 93 93 92 90 87 81 65 56 56 56 55 54 53 50 47 46 43 35 28 28 27 24 22 21 25 34 43 43 44 56 61 63 62 64 70 71 70
93 94 97 97 91 87 83 82 82 82 76 69 60 57 54 51 50 50 52 53 51 49 48 46 41 38 35 30 24 21 21 28 33 48 54 57 64 66 66 65 69 70 70
78 74 76 87 91 81 75 78 84 86 81 74 65 60 55 50 50 55 60 61 62 60 60 55 50 44 39 33 28 28 25 26 27 39 46 52 59 65 63 60 57 52 46
54 55 65 81 85 79 72 89 97 96 94 86 80 74 66 65 60 66 71 70 69 66 64 62 57 51 44 38 36 32 34 38 36 34 42 52 51 51 50 45 40 37 32
59 63 66 68 71 72 86 92 96 98 94 94 94 89 81 71 67 63 59 56 56 59 61 65 63 52 40 36 42 48 54 64 66 59 55 58 59 56 53 49 42 37 40
26 28 38 51 60 76 95 97 96 98 96 96 93 87 74 60 58 54 49 46 43 42 40 40 43 48 42 31 32 52 76 87 90 93 90 88 87 86 84 81 76 71 68
12 11 13 32 54 77 88 94 96 95 97 96 93 93 91 83 74 78 86 76 62 55 50 46 44 43 37 31 28 36 69 97 96 92 89 86 85 82 77 71 64 56 51
22 20 17 17 30 38 42 48 50 45 35 38 44 46 50 57 50 46 65 83 84 75 71 69 65 58 50 47 38 30 30 41 72 92 93 90 89 83 63 32 23 21 21
31 24 18 15 19 40 35 27 23 21 18 17 16 16 16 15 14 14 13 14 16 26 43 60 65 62 62 58 48 42 35 37 37 28 35 62 84 86 81 73 38 13 14
30 24 24 24 30 40 45 41 36 28 30 27 22 20 23 22 23 22 23 22 19 19 18 18 24 33 52 55 50 46 42 39 41 37 35 28 33 52 72 72 56 18 25
25 24 25 25 26 38 45 48 44 38 33 28 22 30 40 43 42 35 31 29 28 28 25 23 22 22 22 25 33 44 43 41 32 24 26 34 34 34 46 61 57 25 32
26 25 26 28 29 46 42 39 36 32 30 32 36 38 53 53 44 38 34 27 22 21 25 30 30 29 26 24 24 25 28 38 35 25 26 26 26 33 36 40 42 24 43
29 35 37 35 33 46 45 39 48 60 57 53 52 58 65 64 50 41 32 32 35 36 38 41 35 30 29 30 27 23 24 25 29 34 34 33 24 23 33 40 46 28 57
40 38 42 44 36 34 33 63 67 61 58 52 45 46 65 74 61 47 43 52 57 59 63 66 68 67 46 32 32 32 27 22 23 25 28 32 24 18 27 46 54 39 55
43 43 44 44 47 47 53 74 70 62 57 55 44 38 43 48 66 70 62 65 66 68 76 81 79 74 73 65 43 38 34 29 24 21 25 27 25 21 19 49 69 43 65
50 59 61 50 43 44 62 75 75 69 62 57 46 38 49 63 69 76 78 84 81 80 86 93 94 87 86 86 75 50 40 36 36 39 25 26 26 21 21 39 78 53 80
63 70 75 73 64 45 43 46 56 61 55 44 44 62 71 71 79 93 93 94 86 91 93 95 100 100 100 92 82 69 59 52 46 47 49 29 30 29 27 42 80 70 98
72 73 72 71 72 72 57 49 50 51 54 69 78 83 82 85 91 95 98 98 92 97 92 96 98 100 100 88 78 78 77 76 73 70 67 48 31 35 39 62 80 91 99
80 79 77 81 78 78 72 65 69 74 78 87 97 94 88 90 96 94 92 94 92 80 90 96 98 84 80 75 63 56 48 48 70 79 82 82 59 51 57 75 90 99 100

GFSGL_700_rhum_183.txt.gz
RH
35 36 37 37 35 36 38 41 46 44 38 40 43 43 42 41 41 41 42 43 42 40 37 33 24 17 12 9 8 7 6 6 5 3 7 26 43 53 57 60 63 60 53
34 36 39 42 44 46 48 48 46 43 44 47 47 47 48 48 49 48 48 46 42 39 37 34 26 18 12 10 11 11 10 10 11 7 8 10 28 51 52 62 73 71 68
45 46 47 47 47 48 49 50 50 51 53 53 53 53 53 53 54 55 54 52 48 44 41 39 36 31 19 12 11 11 13 16 16 12 10 19 21 34 50 53 66 70 69
43 43 44 45 48 50 52 54 58 60 62 63 64 64 65 66 64 62 60 58 56 50 46 42 40 37 34 29 20 16 16 14 15 16 16 16 24 33 42 51 56 60 66
40 38 38 42 49 56 61 64 68 73 76 78 78 76 76 74 73 70 68 67 63 57 50 46 43 39 35 31 27 22 20 20 20 20 19 21 22 33 42 46 45 53 62
42 44 48 51 57 66 71 76 78 79 80 80 80 80 80 80 79 75 67 59 53 53 51 48 47 43 35 29 26 25 24 22 22 26 31 28 30 39 46 49 45 43 50
46 54 62 66 69 73 78 83 88 91 92 93 94 92 88 86 79 71 66 58 52 53 53 52 51 49 47 43 34 30 27 25 23 25 28 35 39 42 44 49 54 52 53
49 58 70 75 79 83 84 86 85 84 85 82 80 82 83 82 77 69 61 55 52 50 49 49 50 51 49 46 43 38 35 32 28 24 22 32 36 50 49 52 57 56 56
34 39 52 74 79 79 78 74 73 88 94 86 77 74 78 77 82 74 66 60 55 52 55 56 55 56 55 53 49 46 41 36 31 29 32 33 41 47 57 61 70 69 67
33 35 38 43 44 46 51 59 62 67 69 70 68 77 91 95 96 89 82 76 68 67 67 67 67 64 64 61 55 50 45 40 36 37 39 46 51 57 62 64 74 75 74
26 22 22 20 17 16 17 20 27 37 46 58 70 87 99 100 95 96 95 89 77 68 64 62 61 63 67 70 63 53 45 42 42 40 44 54 57 58 63 67 68 67 63
8 8 8 8 8 8 8 8 9 24 51 70 92 91 92 98 96 90 83 81 77 65 53 45 43 43 45 50 56 48 37 42 52 60 66 79 82 76 69 66 63 61 62
11 12 12 12 11 12 16 18 16 18 41 68 81 87 83 87 94 97 96 95 92 86 74 62 58 53 45 42 41 38 34 31 43 74 91 94 100 98 98 97 97 90 83
17 17 17 18 18 20 24 22 17 20 34 33 52 50 35 42 45 41 55 76 87 88 93 88 85 81 73 64 56 50 47 40 32 39 88 100 99 93 89 86 77 65 72
26 25 24 25 27 29 26 21 19 19 45 42 29 26 21 20 23 20 18 17 21 26 37 42 33 39 52 64 69 70 65 45 43 34 31 47 81 94 98 98 94 85 63
31 27 26 25 21 23 24 23 23 24 32 47 47 40 30 29 26 22 20 21 22 21 17 15 14 15 15 18 26 51 62 65 68 44 37 39 33 32 52 81 93 89 81
31 29 23 19 20 22 23 25 27 24 43 45 52 49 42 35 32 38 44 44 44 44 39 33 30 26 22 19 18 19 25 50 52 60 61 41 41 37 32 37 59 71 73
31 25 22 21 20 26 30 32 33 38 46 37 35 35 34 40 51 54 52 51 48 49 40 31 25 23 22 24 27 23 21 22 24 39 45 53 42 28 33 35 38 44 52
29 23 26 26 24 29 33 35 36 34 43 38 36 44 59 58 60 62 69 70 58 47 32 28 30 30 31 33 32 27 28 26 23 23 28 38 38 45 25 25 29 38 44
24 24 28 31 33 33 37 39 44 39 31 34 58 59 57 55 45 44 54 76 74 56 44 43 48 50 52 54 56 58 44 28 28 27 24 24 32 32 37 43 33 25 42
28 27 30 34 38 45 53 50 44 48 55 53 62 61 59 56 47 42 36 37 40 65 64 61 62 60 62 66 70 75 70 58 34 28 28 25 23 26 32 32 33 22 28
58 49 43 42 45 51 60 69 66 48 46 58 59 61 65 60 53 42 39 54 62 64 79 83 75 70 71 81 88 89 81 78 61 42 34 30 26 23 24 30 28 21 22
69 66 67 67 67 69 72 74 74 72 48 42 44 51 57 53 44 42 66 73 70 81 97 97 81 77 89 92 96 100 99 95 86 62 42 34 28 26 24 23 28 24 24
86 78 71 72 76 78 76 73 73 73 75 64 49 47 51 53 60 73 79 79 81 94 99 94 87 88 97 96 97 98 98 95 88 78 67 52 46 37 31 23 25 27 30
95 92 85 79 80 85 86 87 87 82 80 78 68 72 80 84 94 98 93 90 97 97 95 96 87 92 98 92 94 92 81 76 74 81 80 69 60 52 45 34 28 30 32
100 100 98 94 95 97 92 92 90 91 91 92 93 94 97 100 100 99 98 98 99 95 94 94 83 80 84 100 88 90 84 72 72 56 53 71 82 77 63 55 45 34 43

GFSGL_700_rhum_186.txt.gz
RH
30 31 33 34 36 35 34 35 40 42 43 44 44 45 46 47 46 47 49 50 48 47 48 46 44 41 38 36 31 22 16 13 11 10 10 11 11 19 20 17 17 30 45
35 38 39 39 41 44 45 45 44 43 42 42 43 46 49 51 53 54 54 54 54 54 54 53 52 48 43 40 37 35 27 17 14 11 9 9 11 16 24 26 24 29 36
48 48 47 46 44 42 40 38 38 40 44 48 51 56 60 62 62 63 62 61 61 60 59 58 57 55 51 47 43 40 37 33 27 21 18 14 12 17 17 25 30 34 35
44 44 44 42 40 37 34 34 38 47 56 63 68 71 74 75 76 75 73 71 69 68 68 67 63 60 58 55 48 44 40 35 31 28 25 22 20 18 21 24 31 35 36
49 48 46 42 37 34 37 44 53 60 67 73 78 82 84 85 86 83 81 80 78 77 75 71 67 61 52 50 49 48 45 38 32 29 27 25 23 22 26 34 34 32 30
42 35 33 32 32 34 41 52 64 74 80 82 83 83 85 86 86 80 76 73 73 72 72 69 62 56 52 51 52 51 50 48 42 33 29 26 24 24 25 33 35 34 34
37 31 27 28 30 37 43 49 58 65 67 69 70 71 69 69 79 83 76 71 70 74 77 71 61 55 52 50 51 52 52 49 46 44 37 31 28 27 26 27 36 45 46
35 28 20 22 26 29 30 31 34 37 39 39 39 41 44 50 65 74 79 77 74 74 80 74 66 59 58 54 50 53 56 56 53 47 43 38 34 32 31 33 40 53 57
46 28 20 22 22 22 21 17 13 10 9 8 8 10 17 24 51 69 78 80 88 93 95 88 79 72 69 68 64 61 61 61 58 53 48 43 39 37 36 39 50 59 70
25 20 18 13 9 8 8 8 8 8 8 8 7 8 9 14 36 74 93 97 93 94 94 97 86 81 70 65 65 66 65 68 63 57 55 51 51 55 52 50 61 60 70
12 9 9 9 10 11 11 12 11 11 11 11 12 12 14 28 58 93 97 97 96 88 87 86 78 68 68 50 44 44 51 61 63 52 45 61 78 71 64 61 58 62 65
11 11 12 14 16 16 14 13 12 12 17 20 23 20 17 20 52 80 96 98 99 97 83 80 81 78 82 75 55 43 42 43 40 39 37 43 83 98 92 86 80 79 77
13 15 18 19 18 18 17 16 17 17 20 21 21 19 17 18 32 43 50 37 30 37 44 66 83 92 96 96 94 90 66 52 46 46 42 33 46 100 100 99 98 97 100
19 22 22 21 20 17 17 19 16 15 17 18 19 22 21 22 37 37 28 22 19 18 20 22 25 36 48 71 69 94 96 96 91 75 55 45 36 42 91 98 97 94 92
23 22 20 20 19 16 17 16 18 17 19 21 22 24 26 27 35 48 44 34 29 26 23 21 19 18 18 18 20 38 28 29 56 67 70 76 51 38 34 50 86 97 97
14 13 15 16 15 17 17 18 22 21 21 26 31 34 44 44 46 50 48 42 36 33 31 30 32 35 34 33 30 26 21 18 18 22 48 59 74 67 40 41 38 46 78
13 13 14 15 16 17 18 24 26 26 27 27 30 33 47 44 38 37 40 47 49 55 52 48 49 47 41 37 31 24 21 22 25 22 21 26 43 61 70 46 40 39 44
24 25 31 30 24 21 22 26 32 33 35 38 33 32 34 35 47 61 63 60 57 63 71 70 60 52 40 29 28 28 27 26 24 23 25 25 23 34 40 62 47 32 37
30 33 39 42 43 32 27 29 34 37 42 50 49 37 37 42 60 62 65 64 56 44 41 49 63 60 46 41 45 48 48 47 43 40 30 27 28 23 27 35 57 44 27
36 43 49 53 55 56 46 37 37 40 45 52 62 57 42 48 53 60 56 54 58 54 44 38 38 44 62 58 59 60 57 57 59 60 56 51 29 28 26 25 32 56 35
46 49 54 64 72 73 72 67 57 54 57 62 66 69 59 44 48 53 54 54 51 49 40 50 61 61 66 77 78 72 68 70 74 78 77 68 54 30 30 28 26 29 48
57 54 58 68 80 86 84 78 77 77 75 70 66 66 74 64 45 44 48 52 49 44 52 73 72 76 85 92 88 81 85 89 91 95 94 86 75 46 32 30 26 26 27
63 68 77 83 90 93 93 88 79 82 80 76 76 76 75 74 72 56 51 55 65 79 86 84 84 90 99 97 92 95 97 97 100 100 100 100 90 56 43 31 27 26 25
85 88 92 94 97 100 100 98 89 90 90 86 86 85 82 78 75 71 76 85 94 98 98 93 96 98 98 95 90 96 100 100 100 100 100 96 90 71 54 41 30 28 25
91 93 98 99 98 99 100 100 100 100 99 99 98 96 93 93 94 97 100 99 98 100 100 100 100 100 97 98 88 86 92 98 91 92 88 82 81 82 67 55 46 37 35
97 97 100 99 99 100 100 99 98 99 99 99 98 97 98 98 99 99 100 100 100 100 96 99 100 98 95 88 82 87 100 100 100 98 90 81 64 68 78 68 61 51 52

GFSGL_700_rhum_192.txt.gz
RH
33 32 32 29 31 33 37 41 44 46 44 41 40 39 39 38 35 32 29 31 36 40 44 46 51 53 54 54 52 52 52 52 48 46 51 51 48 44 40 36 32 27 20
31 29 29 32 42 46 48 47 44 43 45 45 44 40 34 30 28 28 28 32 34 38 44 49 57 62 63 66 66 66 66 67 63 57 60 59 56 52 48 44 39 35 31
32 38 43 45 44 46 47 48 48 46 41 35 30 27 24 21 20 21 22 22 22 23 25 28 34 42 44 51 55 55 60 65 68 65 62 62 61 58 52 48 46 42 37
43 44 46 49 51 51 50 48 44 36 31 26 22 19 16 14 14 14 13 14 14 15 16 19 24 30 36 44 50 56 58 59 61 62 60 59 58 56 52 49 46 45 42
52 53 54 54 53 51 47 41 35 30 27 27 20 15 14 13 12 12 11 11 10 10 10 10 12 18 32 52 64 71 79 78 77 76 72 68 63 59 56 52 49 48 44
58 57 56 54 48 41 36 29 29 31 24 16 14 13 12 11 10 9 8 8 8 7 7 7 7 7 14 38 73 93 97 95 90 86 79 73 68 70 70 64 58 53 48
55 49 42 36 28 24 30 33 26 17 15 14 12 10 8 7 7 7 7 6 6 6 6 7 9 9 11 19 42 80 97 98 96 95 88 84 75 72 68 64 66 62 59
42 35 26 24 29 31 25 19 17 16 13 9 8 7 7 7 7 7 7 7 6 6 8 12 15 15 18 50 87 90 86 99 100 99 96 93 91 86 82 73 66 61 59
25 24 26 26 24 21 19 18 17 12 9 8 8 8 8 8 9 8 8 8 8 8 10 13 18 25 31 72 99 93 86 89 98 97 96 96 97 96 94 81 72 72 61
23 23 25 24 21 19 20 18 12 10 9 8 8 9 10 9 9 9 12 14 13 12 11 12 14 25 51 69 92 97 93 79 94 94 92 92 73 86 90 79 78 84 81
26 27 24 22 20 22 19 13 12 11 8 7 7 7 9 11 11 15 17 18 15 14 13 14 16 26 34 53 45 48 41 50 69 93 95 98 95 88 79 55 48 70 95
26 26 22 20 21 23 16 14 13 11 9 9 10 10 11 13 16 20 23 25 20 20 18 23 26 31 42 32 25 22 21 22 27 45 75 71 91 96 86 74 53 43 89
27 22 20 20 24 22 15 12 11 13 16 14 17 18 17 17 20 24 28 32 22 20 28 34 37 42 47 43 34 30 27 26 30 40 32 22 28 61 90 80 48 43 41
24 22 21 24 26 18 15 12 12 19 22 25 27 27 25 22 22 27 32 38 30 20 36 37 33 41 43 43 41 39 38 38 37 33 32 30 26 27 46 96 96 92 59
23 22 23 27 23 20 17 14 16 22 30 32 34 38 36 30 26 28 33 44 46 27 33 32 40 50 46 45 48 50 51 53 50 47 45 40 35 29 29 74 86 78 74
25 26 27 25 24 22 18 20 23 28 31 38 43 50 47 44 35 31 34 39 54 47 29 32 44 56 57 51 48 55 70 70 63 51 36 30 26 24 25 26 40 77 30
28 29 26 25 20 20 28 35 32 24 39 40 46 50 67 61 50 40 39 42 48 61 45 37 50 59 57 55 52 48 40 46 62 43 33 34 36 34 34 26 22 22 19
30 26 22 21 27 33 40 43 47 44 38 43 52 54 68 79 74 62 54 52 55 65 66 43 46 59 60 54 49 46 42 39 41 55 46 46 46 43 39 38 35 25 24
21 23 31 33 36 43 44 47 50 52 54 55 58 65 76 86 85 80 76 73 71 72 76 63 45 47 54 55 52 46 41 46 56 49 60 62 61 59 50 48 45 42 30
32 33 39 44 47 53 63 72 78 80 80 81 83 87 92 93 84 79 79 79 79 77 76 76 65 48 47 48 47 45 42 66 70 65 67 76 77 72 62 55 58 57 50
49 58 67 75 82 87 91 93 93 94 92 92 94 99 100 100 93 87 86 84 80 79 83 84 79 70 52 50 52 58 74 79 80 85 95 94 83 76 82 78 78 77 59
58 63 71 79 86 95 100 100 100 100 98 98 96 99 100 100 99 99 98 98 93 89 87 85 83 76 73 81 89 94 91 88 95 99 98 90 91 92 92 89 88 88 74
69 78 83 86 89 98 100 100 100 100 100 100 100 100 100 99 99 99 99 100 99 97 99 98 98 98 100 100 100 98 97 98 99 99 96 90 94 92 95 96 97 96 85
77 80 84 86 89 97 100 100 100 100 100 100 100 100 100 100 100 99 100 100 100 100 100 100 100 100 100 99 98 100 100 100 100 96 100 96 90 95 97 98 98 95 91
70 76 81 86 93 100 99 100 100 100 100 100 100 100 100 100 100 100 100 100 99 99 100 100 100 100 100 100 100 100 100 100 99 98 100 97 98 100 98 97 96 94 92
72 76 81 86 90 95 98 97 100 100 100 100 100 100 100 99 99 99 99 99 100 98 99 100 100 100 100 100 100 100 97 98 97 99 96 95 97 98 100 100 99 94 91